Location: Arthez
(43.0833°N, 0.2500°W)
Time: 18:02:33
(UTC+00:00)

FENGYUN 1C DEB - Visible Passes

Search period start: 11 August 2022 00:00
Search period end: 21 August 2022 00:00
Orbit: 834 x 911 km, 99.6° (Epoch: 10 August)

Date Brightness Start Highest point End Pass type
(mag) Time Alt. Az. Time Alt. Az. Time Alt. Az.
13 Aug ? 19:38:54 10° WSW 19:40:43 12° W 19:42:33 10° WNW visible
14 Aug ? 19:32:46 10° WSW 19:35:18 13° W 19:37:50 10° WNW visible
15 Aug ? 19:26:50 10° SW 19:29:54 15° W 19:32:57 10° WNW visible
